funmix.eu alexa rank chart, funmix.eu alexa rank daily changes

funmix.eu alexa rank chart, funmix.eu alexa rank daily changes

funmix.eu
Actual rank:
32 644

RANK HISTORY

Date Rank Diff
2018/01/21 32 644 -351
2018/01/19 32 995 -124
2018/01/18 33 119 -459
2018/01/17 33 578 -552
2018/01/16 34 130 -225
2018/01/15 34 355 -880
2018/01/14 35 235 -1 014
2018/01/13 36 249 -1 525
2018/01/12 37 774 -2 326
2018/01/11 40 100 -1 587
2018/01/10 41 687 -4 232
2018/01/09 45 919 -4 478
2018/01/08 50 397 -2 515
2018/01/07 52 912 -2 861
2018/01/06 55 773 -1 950
2018/01/05 57 723 -1 389
2018/01/04 59 112 -3 237
2018/01/03 62 349 -1 639
2018/01/02 63 988 -2 543
2018/01/01 66 531 -2 185
2017/12/31 68 716 -483
2017/12/30 69 199 -1 683
2017/12/29 70 882 -1 051
2017/12/28 71 933 -1 464
2017/12/27 73 397 -1 548
2017/12/26 74 945 -3 812
2017/12/25 78 757 -2 272
2017/12/24 81 029 -2 435
2017/12/23 83 464 -1 188
2017/12/22 84 652 +1 545
2017/12/21 83 107 +1 254
2017/12/20 81 853 +3 831
2017/12/19 78 022 +2 504
2017/12/18 75 518 +1 290
2017/12/17 74 228 +1 158
2017/12/16 73 070 +2 567
2017/12/15 70 503 +2 109
2017/12/14 68 394 +182
2017/12/13 68 212 +1 175
2017/12/12 67 037 -1 141
2017/12/11 68 178 -526
2017/12/10 68 704 -543
2017/12/09 69 247 +624
2017/12/08 68 623 +127
2017/12/07 68 496 +1 367
2017/12/06 67 129 +1 382
2017/12/05 65 747 -784
2017/12/04 66 531 +555
2017/12/03 65 976 +1 067
2017/12/02 64 909 +1 312
2017/12/01 63 597 +1 161
2017/11/30 62 436 +1 896
2017/11/29 60 540 +2 224
2017/11/28 58 316 +2 028
2017/11/27 56 288 +1 144
2017/11/26 55 144 +1 488
2017/11/25 53 656 +867
2017/11/24 52 789 +1 342
2017/11/23 51 447 +991
2017/11/22 50 456

WIDGET FOR YOUR SITE

DOMAINS WITH THE NEAREST RANK

Domain Rank
mymaths.co.uk 32 639
projectorcentral.com 32 640
friatider.se 32 641
cognitoforms.com 32 642
hoodamath.com 32 643
funmix.eu 32 644
mmfilmesonlinex.net 32 645
webnoviny.sk 32 646
lutrija.hr 32 647
vidnice.space 32 648
z-dn.net 32 649

DOMAINS WITH THE NEAREST RANK BY TLD .eu

Domain Rank
xspeeds.eu 31 268
antonioli.eu 31 514
tubeadvertising.eu 32 217
ekool.eu 32 561
cine-online.eu 32 634
funmix.eu 32 644
xiaomi.eu 32 806
ifirstrow.eu 32 879
ls-portal.eu 33 079
yiimp.eu 33 104
duckingproxy.eu 33 897